COSMOS 2499 DEB, 56573

Orbit data source: Space-Track

COSMOS 2499 DEB, 56573 is space debris in LEO originally from a launch on Fri, 23 May 2014 UTC launched from the Plesetsk Missile And Space Complex (PKMTR). Debris objects in space refer to the collection of defunct objects orbiting the Earth. Examples of debris include non-operational satellites, rocket bodies, and fragments generated from explosions, collisions, or faulty payload assembly.

Loading next visibility...
Identifier
56573, 2014-028BG
Orbit
LEO
Country
Flag of CISCIS
Related business
Manufacturer
TsNIIKhM
Mission
Spacecraft
Bus & Motor
Unknown
Mass
Unknown
Launch date (UTC)
2014-05-23 (12 years ago)
Launch vehicle
Unknown
Launch site
Plesetsk Missile And Space Complex (PKMTR)
Object type
Payload
Rocket body
Debris
Shape & HBR
Unknown shape, 0.1 m
Radar Cross Section
Small (<0.1 m²)

Expand to show TLE details & history
Last TLE update: 2 weeks ago

TLE from 2 weeks ago
0 COSMOS 2499 DEB
1 56573U 14028BG  25338.21301924  .00017232  00000-0  24211-1 0  9990
2 56573  82.2524 309.3756 0335963 266.2128  90.0538 13.36356684139115
Epoch: 2025-12-04T05:06Z
TLE epoch observation values (Epoch: 2025-12-04T05:06:44.862Z)
Latitude
Longitude
159.41598°
Altitude
1,134.409 km
Speed
7.281 km/s
True Right ascension
20h 37m 30s
True Declination
0° 00' 00"
Sunlit
Object was in daylight at epoch
Visualization orbit readout
Latitude
Unknown
Longitude
Unknown
Altitude
Unknown
Speed
Unknown
Apparent Right ascension
Unknown
Apparent Declination
Unknown
Sunlit
N/A
Visualization observer readout
Local Sidereal Time
12:49:47
Azimuth
Unknown
Elevation
Unknown
Doppler factor
Unknown
Orbital elements
Apogee altitude
1,372.02 km
Perigee altitude
868.193 km
Semi-major axis
7,498.244 km
Eccentricity
0.0336
Inclination
82.2524°
RAAN
309.3756°
Arg. of periapsis
266.2128°
True anomaly
93.90061°
Mean anomaly
90.0538°
Eccentric anomaly
91.97758°
Mean motion
3.34275 °/min
Orbital period
107.7 mins
BSTAR
0.024211
Loading maneuver chart data...
Computing Atmospheric mass density...
Loading historical data...
Loading historical data...
Loading historical data...
Loading historical data...
Loading historical data...
Loading historical data...
Loading historical data...

Documentation

Showing up to 5 results
|